Location: Croisilles
(50.1998°N, 2.8793°E)
Time: 13:40:53
(UTC+00:00)

Cosmos 1844 Rocket - Pass Details

Date: 21 January 2021
Orbit: 825 x 843 km, 71.0° (Epoch: 26 February)

Event Time Altitude Azimuth Distance (km) Brightness Sun altitude
Rises 17:51:21 0° 188° (S) 3,388 6.1 -13.7°
Reaches altitude 10° 17:53:51 10° 182° (S) 2,456 5.3 -14.1°
Maximum altitude 17:59:14 47° 110° (ESE) 1,102 3.0 -14.9°
Enters shadow 18:03:14 18° 44° (NE) 1,977 4.1 -15.5°
